Satellite-Ground Cal/Val Region Overpasses Predictions

Prediction of Satellite NPP Overpassing Cal/Val Region: PacNW

Region Location: (Latitude: 10.00, Longitude: 139.50) to (Latitude: 22.70, Longitude: 165.60).

Table of predicted overpasses for the next 14.0 days since TLE Epoch: 3/1/2015
Interval Starting Time Starting Location Ending Time Ending Location
1 03/01/2015 02:26:26 ( 10.00, 164.66) 03/01/2015 02:30:02 ( 22.69, 161.65)
2 03/01/2015 14:58:19 ( 22.68, 161.87) 03/01/2015 15:01:55 ( 10.00, 158.86)
3 03/02/2015 03:48:54 ( 10.02, 144.04) 03/02/2015 03:52:29 ( 22.65, 141.04)
4 03/02/2015 14:40:27 ( 18.51, 165.60) 03/02/2015 14:42:51 ( 10.05, 163.63)
5 03/02/2015 16:20:46 ( 22.66, 141.24) 03/02/2015 16:22:48 ( 15.50, 139.51)
6 03/03/2015 03:29:51 ( 10.04, 148.79) 03/03/2015 03:33:26 ( 22.66, 145.80)
7 03/03/2015 16:01:44 ( 22.65, 146.00) 03/03/2015 16:05:19 ( 10.03, 143.00)
8 03/04/2015 03:10:49 ( 10.05, 153.54) 03/04/2015 03:14:24 ( 22.68, 150.55)
9 03/04/2015 15:42:40 ( 22.70, 150.76) 03/04/2015 15:46:16 ( 10.02, 147.76)
10 03/05/2015 02:51:45 ( 10.01, 158.31) 03/05/2015 02:55:21 ( 22.69, 155.30)
11 03/05/2015 15:23:38 ( 22.68, 155.52) 03/05/2015 15:27:14 ( 10.00, 152.51)
12 03/06/2015 02:32:43 ( 10.02, 163.06) 03/06/2015 02:36:18 ( 22.65, 160.07)
13 03/06/2015 15:04:35 ( 22.67, 160.27) 03/06/2015 15:08:10 ( 10.05, 157.28)
14 03/07/2015 02:16:22 ( 19.55, 165.59) 03/07/2015 02:17:15 ( 22.66, 164.82)
15 03/07/2015 03:55:10 ( 10.05, 142.44) 03/07/2015 03:58:41 ( 22.44, 139.50)
16 03/07/2015 14:45:33 ( 22.65, 165.02) 03/07/2015 14:49:08 ( 10.03, 162.03)
17 03/07/2015 16:27:02 ( 22.70, 139.66) 03/07/2015 16:27:13 ( 22.06, 139.50)
18 03/08/2015 03:36:07 ( 10.01, 147.21) 03/08/2015 03:39:43 ( 22.69, 144.20)
19 03/08/2015 16:08:00 ( 22.68, 144.41) 03/08/2015 16:11:36 ( 10.00, 141.41)
20 03/09/2015 03:17:04 ( 10.02, 151.96) 03/09/2015 03:20:39 ( 22.65, 148.97)
21 03/09/2015 15:48:57 ( 22.67, 149.17) 03/09/2015 15:52:32 ( 10.05, 146.17)
22 03/10/2015 02:58:02 ( 10.04, 156.71) 03/10/2015 03:01:37 ( 22.67, 153.72)
23 03/10/2015 15:29:55 ( 22.65, 153.92) 03/10/2015 15:33:30 ( 10.03, 150.93)
24 03/11/2015 02:38:58 ( 10.00, 161.48) 03/11/2015 02:42:34 ( 22.69, 158.47)
25 03/11/2015 15:10:51 ( 22.69, 158.69) 03/11/2015 15:14:27 ( 10.01, 155.68)
26 03/12/2015 02:20:43 ( 12.79, 165.60) 03/12/2015 02:23:31 ( 22.65, 163.24)
27 03/12/2015 04:01:26 ( 10.03, 140.85) 03/12/2015 04:03:05 ( 15.85, 139.51)
28 03/12/2015 14:51:49 ( 22.67, 163.44) 03/12/2015 14:55:24 ( 10.05, 160.45)
29 03/13/2015 03:42:23 ( 10.06, 145.61) 03/13/2015 03:45:58 ( 22.68, 142.61)
30 03/13/2015 14:35:52 ( 11.73, 165.59) 03/13/2015 14:36:21 ( 10.03, 165.20)
31 03/13/2015 16:14:15 ( 22.69, 142.83) 03/13/2015 16:17:51 ( 10.02, 139.82)
32 03/14/2015 03:23:20 ( 10.02, 150.37) 03/14/2015 03:26:55 ( 22.65, 147.38)


NCC Satellite Cal/Val Overpasses Prediction Service
